Home   Weather   Dallas   Past weeks

Flag for USA Past Weather in Dallas, Texas, USA — Yesterday and Last 2 Weeks

Now
79 °F

Mostly cloudy.


Feels Like: 83 °F
Forecast: 70 / 79 °F
Wind: 10 mph from North

Location: Dallas Love Field

Current Time: Sep 22, 2018 at 3:53:03 pm

Latest Report: Sep 22, 2018 at 3:16 pm


Visibility: 10 mi

Pressure: 29.86 "Hg

Humidity: 84%

Dew Point: 74 °F

Location of DallasLocation

Past Weather in Dallas — Graph

°F

Dallas Temperature Yesterday

Maximum temperature yesterday: 87 °F (at 4:53 pm)
Minimum temperature yesterday: 75 °F (at 10:36 pm)
Average temperature yesterday: 79 °F

High & Low Weather Summary for the Past Weeks

 TemperatureHumidityPressure
High95 °F (Sep 18, 4:53 pm)100% (Sep 22, 2:09 am)30.08 "Hg (Sep 22, 2:09 am)
Low69 °F (Sep 11, 4:53 am)41% (Sep 18, 5:53 pm)29.83 "Hg (Sep 19, 5:53 pm)
Average79 °F79%29.94 "Hg
* Reported Sep 7 2:53 pm — Sep 22 2:01 pm, Dallas. Weather by CustomWeather, © 2018

Note: Actual official high and low records may vary slightly from our data, if they occured in-between our weather recording intervals... More about our weather records

Advertising

Dallas Weather History for the Previous 24 Hours

Scroll right to see more
 ConditionsComfort  
Time TempWeatherWind HumidityBarometerVisibility
2:01 pm
Sat, Sep 22
80 °FPartly sunny.7 mph81%29.87 "Hg10 mi
12:53 pm80 °FPartly sunny.5 mph81%29.87 "Hg10 mi
11:53 am79 °FMostly cloudy.6 mph82%29.88 "Hg10 mi
11:29 am79 °FOvercast.6 mph84%29.90 "Hg10 mi
10:53 am78 °FMostly cloudy.5 mph90%29.88 "Hg10 mi
9:53 am76 °FMostly cloudy.5 mph94%29.88 "Hg10 mi
9:26 am75 °FMostly cloudy.8 mph96%29.90 "Hg10 mi
8:53 am75 °FMostly cloudy.7 mph94%29.87 "Hg8 mi
7:53 am74 °FLight rain. Fog.5 mph97%29.87 "Hg6 mi
6:53 am74 °FLight rain. Fog.6 mph97%29.88 "Hg5 mi
6:35 am74 °FRain. Fog.6 mph97%29.90 "Hg4 mi
5:53 am74 °FRain. Fog.3 mph97%29.88 "Hg3 mi
5:25 am74 °FRain. Fog.14 mph94%29.90 "Hg5 mi
5:04 am75 °FHeavy rain. Fog.9 mph96%29.90 "Hg2 mi
4:53 am75 °FLight rain. Fog.10 mph96%29.88 "Hg4 mi
4:01 am76 °FLight rain. Fog.10 mph94%29.90 "Hg6 mi
3:27 am75 °FRain. Fog.9 mph96%29.90 "Hg5 mi
3:20 am75 °FRain. Fog.9 mph96%29.89 "Hg2 mi
2:40 am75 °FHeavy rain. Fog.8 mph100%29.89 "Hg1 mi
2:23 am75 °FStrong thunderstorms. Fog.10 mph100%29.90 "Hg2 mi
2:09 am75 °FStrong thunderstorms. Fog.15 mph100%29.90 "Hg1 mi
1:22 am75 °FStrong thunderstorms. Fog.17 mph96%29.90 "Hg2 mi
1:15 am75 °FStrong thunderstorms. Fog.10 mph96%29.92 "Hg2 mi
1:05 am75 °FStrong thunderstorms. Fog.10 mph96%29.92 "Hg4 mi
12:33 am75 °FRain. Fog.6 mph96%29.95 "Hg4 mi
12:24 am75 °FHeavy rain. Fog.7 mph96%29.95 "Hg2 mi
12:08 am75 °FHeavy rain. Fog.5 mph96%29.95 "Hg2 mi
11:53 pm
Fri, Sep 21
75 °FHeavy rain. Fog.5 mph96%29.93 "Hg3 mi
11:42 pm75 °FRain. Fog.6 mph96%29.95 "Hg4 mi
11:29 pm75 °FHeavy rain. Fog.5 mph96%29.94 "Hg2 mi
11:15 pm75 °FHeavy rain. Fog.9 mph96%29.95 "Hg3 mi
10:53 pm75 °FHeavy rain. Fog.10 mph96%29.93 "Hg1 mi
10:36 pm75 °FStrong thunderstorms. Fog.3 mph96%29.96 "Hg1 mi
9:53 pm76 °FThunderstorms. Mostly cloudy.10 mph94%29.90 "Hg8 mi
9:43 pm76 °FThunderstorms. Mostly cloudy.10 mph94%29.93 "Hg8 mi
9:23 pm76 °FLight rain. Mostly cloudy.14 mph94%29.92 "Hg8 mi
9:07 pm76 °FOvercast.12 mph94%29.92 "Hg8 mi
8:24 pm76 °FThunderstorms. Overcast.5 mph94%29.92 "Hg8 mi
7:58 pm76 °FStrong thunderstorms. Fog.15 mph94%29.92 "Hg1 mi
6:53 pm79 °FStrong thunderstorms. Fog.15 mph90%29.86 "Hg1 mi
6:23 pm82 °FThunderstorms. Cloudy.3 mph79%29.88 "Hg10 mi
5:53 pm83 °FCloudy.No wind79%29.86 "Hg10 mi
5:32 pm83 °FThunderstorms. Cloudy.6 mph79%29.88 "Hg10 mi
5:05 pm85 °FThunderstorms. Mostly cloudy.15 mph72%29.87 "Hg8 mi
4:53 pm87 °FLight rain. Mostly cloudy.14 mph65%29.85 "Hg10 mi
3:29 pm86 °FThunderstorms. Broken clouds.9 mph72%29.88 "Hg10 mi
Weather by CustomWeather, © 2018

See weather overview